Onweer van: 25-07-2021 11:00 tot: 20:00 waarschuwing voor: Onweer niveau: Geel info button


waarschuwing voor Onweer Meer informatie blitzortung!


Regen radar Meer informatie rain snow radar


Bezoek onze andere website:

Template documentation
and downloads

And another site



15 daagse weersverwachting Tromsø (NO)

  • Overzicht
  • Per uur
  • 15 dagen
  • Extra
  • Vergelijk
  • Kaarten
  • Dagkaart
  • Meer »
  • Info
  • Statistieken
  • Directe link
    Temp 6h Neerslag Wind  
 01:31     00:34    Daglengte: 0:57 Vandaag
08:00
11°
3.9 mm
3
14:00
11°
8.3 mm
2
20:00
11°
7.1 mm
2
 01:44     00:11    Daglengte: 1:33 Morgen
02:00
10°
3.2 mm
2
08:00
13°
 
2
14:00
15°
 
2
20:00
13°
 
2
 01:55     23:57    Daglengte: 22:02 Dinsdag 27 Jul
02:00
11°
 
1
08:00
15°
 
1
14:00
21°
 
3
20:00
17°
 
3
 02:04     23:46    Daglengte: 21:42 Woensdag 28 Jul
02:00
12°
 
3
Locatie info
Region: Troms
Latitude: 69.6514°N
Longitude: 18.9561°E
0 masl
Postcode: 9008
Temp/Neerslag /Baro Onweer/Dauwpunt
    Temp Baro 1h Neerslag Dauwpunt Wind UV Bewolking  
 01:31     00:34    Daglengte: 0:57 Vandaag
06:00
11°
1012.4 hPa 2.1 mm
49%
10.5°
3
Windvlaag: 5.8 m/s
86%
07:00
11°
1012.3 hPa 0.7 mm
82%
10.6°
3
Windvlaag: 7.3 m/s
86%
08:00
11°
1012.1 hPa 1.2 mm
82%
10.7°
3
Windvlaag: 7.3 m/s
86%
09:00
11°
1012.4 hPa 1.9 mm
82%
10.9°
3
Windvlaag: 7.2 m/s
86%
10:00
11°
1012.8 hPa 1.6 mm
82%
10.9°
3
Windvlaag: 7 m/s
86%
11:00
11°
1013.3 hPa 1.9 mm
82%
10.9°
3
Windvlaag: 6.8 m/s
86%
12:00
11°
1013.7 hPa 1.6 mm
82%
11.0°
3
Windvlaag: 6.7 m/s
86%
13:00
11°
1014.1 hPa
82%
11.1°
3
Windvlaag: 6.8 m/s
86%
14:00
11°
1014.6 hPa 1.4 mm
82%
11.0°
2
Windvlaag: 5.9 m/s
86%
15:00
11°
1014.9 hPa 1.4 mm
79%
11.1°
2
Windvlaag: 5.6 m/s
86%
16:00
11°
1015.1 hPa
75%
11.1°
2
Windvlaag: 5.6 m/s
86%
17:00
11°
1015.5 hPa 1.9 mm
81%
11.0°
2
Windvlaag: 5.6 m/s
86%
18:00
11°
1015.7 hPa
82%
10.9°
2
Windvlaag: 5.1 m/s
86%
19:00
11°
1016.0 hPa 2.0 mm
82%
10.7°
2
Windvlaag: 4.7 m/s
86%
20:00
11°
1016.2 hPa 1.8 mm
82%
10.4°
2
Windvlaag: 4.2 m/s
86%
21:00
11°
1016.5 hPa 1.7 mm
82%
10.5°
2
Windvlaag: 1.9 m/s
75%
22:00
11°
1016.8 hPa 1.6 mm
81%
10.3°
2
Windvlaag: -1 m/s
80%
23:00
11°
1017.0 hPa
77%
10.3°
2
Windvlaag: -0.9 m/s
65%
 01:44     00:11    Daglengte: 1:33 Morgen
00:00
11°
1017.3 hPa
27%
9.9°
2
Windvlaag: -1 m/s
23%
01:00
10°
1017.6 hPa
15%
9.5°
2
Windvlaag: -0.4 m/s
22%
02:00
10°
1017.8 hPa
14%
9.1°
2
Windvlaag: -0.2 m/s
23%
03:00
10°
Voelt als: 9.5°
1017.9 hPa
14%
9.1°
2
Windvlaag: 0.4 m/s
23%
04:00
10°
1017.9 hPa
14%
9.4°
2
Windvlaag: 0.1 m/s
23%
05:00
11°
1017.9 hPa
14%
9.8°
1
Windvlaag: 0.8 m/s
23%
06:00
11°
1018.0 hPa
14%
9.8°
1
Windvlaag: 0.5 m/s
22%
07:00
12°
1018.1 hPa
14%
10.1°
1
Windvlaag: -0.3 m/s
22%
08:00
13°
1018.1 hPa
14%
10.6°
2
Windvlaag: -0.9 m/s
57%
09:00
13°
1018.2 hPa
14%
10.4°
2
Windvlaag: -1.6 m/s
56%
10:00
13°
1018.5 hPa
14%
10.5°
2
Windvlaag: -1.7 m/s
64%
11:00
13°
1018.5 hPa
14%
11.0°
1
Windvlaag: -1.7 m/s
66%
12:00
13°
1018.5 hPa
14%
11.3°
1
Windvlaag: -1.3 m/s
73%
13:00
14°
1018.4 hPa
14%
11.3°
2
Windvlaag: -1.5 m/s
69%
14:00
15°
1018.4 hPa
14%
11.4°
2
Windvlaag: -1.5 m/s
69%
15:00
15°
1018.3 hPa
14%
11.7°
2
Windvlaag: -1.5 m/s
69%
16:00
15°
1018.3 hPa
14%
12.0°
2
Windvlaag: -1.4 m/s
61%
17:00
15°
1018.2 hPa
16%
12.3°
2
Windvlaag: -1.2 m/s
54%
18:00
14°
1018.3 hPa
15%
12.4°
2
Windvlaag: -2 m/s
25%
19:00
14°
1018.2 hPa
14%
12.2°
2
Windvlaag: -1.8 m/s
16%
20:00
13°
1018.1 hPa
14%
11.5°
2
Windvlaag: -1.1 m/s
17%
21:00
13°
1018.1 hPa
14%
10.6°
2
Windvlaag: -0.1 m/s
16%
22:00
12°
1018.2 hPa
14%
9.9°
1
Windvlaag: 0.5 m/s
16%
23:00
13°
1018.5 hPa
21%
11.5°
1
Windvlaag: 0.8 m/s
31%
 01:55     23:57    Daglengte: 22:02 Dinsdag 27 Jul
00:00
12°
1018.4 hPa
21%
10.9°
1
Windvlaag: 0.7 m/s
31%
01:00
12°
1018.3 hPa
21%
10.6°
1
Windvlaag: 0.7 m/s
28%
02:00
11°
1018.2 hPa
21%
10.2°
1
Windvlaag: 0.6 m/s
30%
03:00
11°
1018.2 hPa
21%
9.8°
1
Windvlaag: 0.6 m/s
21%
04:00
11°
1018.2 hPa
21%
9.5°
1
Windvlaag: 0.4 m/s
13%
05:00
12°
1018.0 hPa
21%
9.1°
1
Windvlaag: 0.4 m/s
11%
06:00
13°
1017.7 hPa
21%
9.7°
1
Windvlaag: 0.7 m/s
8%
07:00
15°
1017.4 hPa
21%
10.2°
1
Windvlaag: 0.6 m/s
9%
08:00
15°
1017.3 hPa
21%
10.5°
1
Windvlaag: 0.6 m/s
15%
09:00
18°
1016.7 hPa
21%
12.1°
1
Windvlaag: 4.2 m/s
0%
10:00
19°
1016.7 hPa
21%
12.0°
1
Windvlaag: 4.3 m/s
0%
11:00
19°
1016.5 hPa
21%
12.1°
2
Windvlaag: 4.3 m/s
0%
12:00
20°
1016.4 hPa
21%
12.3°
2
Windvlaag: 4.9 m/s
0%
13:00
21°
1016.1 hPa
21%
12.4°
2
Windvlaag: 5.1 m/s
0%
14:00
21°
1015.9 hPa
21%
12.8°
3
Windvlaag: 5.7 m/s
0%
15:00
21°
1015.7 hPa
21%
13.0°
3
Windvlaag: 6 m/s
0%
16:00
20°
1015.7 hPa
21%
12.9°
3
Windvlaag: 6.5 m/s
0%
17:00
20°
1015.3 hPa
21%
12.9°
3
Windvlaag: 6.9 m/s
0%
18:00
19°
1015.3 hPa
21%
13.0°
3
Windvlaag: 7.3 m/s
0%
19:00
18°
1015.0 hPa
21%
12.8°
3
Windvlaag: 9.2 m/s
0%
20:00
17°
1014.9 hPa
21%
12.6°
3
Windvlaag: 10.2 m/s
4%
21:00
16°
1015.0 hPa
21%
12.3°
3
Windvlaag: 10.8 m/s
6%
22:00
15°
1015.0 hPa
21%
12.2°
3
Windvlaag: 11.3 m/s
9%
23:00
14°
1015.0 hPa
21%
11.6°
3
Windvlaag: 11.1 m/s
33%
 02:04     23:46    Daglengte: 21:42 Woensdag 28 Jul
00:00
13°
1014.8 hPa
21%
11.1°
3
Windvlaag: 11.6 m/s
11%
01:00
12°
1014.6 hPa
21%
10.8°
3
Windvlaag: 11.5 m/s
13%
02:00
12°
1014.1 hPa
21%
10.6°
3
Windvlaag: 10.7 m/s
13%
Temp/Neerslag /Baro Onweer/Dauwpunt
    Temp Baro Neerslag Dauwpunt Wind Bewolking  
 01:31     00:34    Daglengte: 0:57 Vandaag
08:00
11°
1012.1 hPa 3.9 mm 10.7°
3
86%
11:00
11°
1013.3 hPa 5.3 mm 10.9°
3
86%
14:00
11°
1014.6 hPa 3.0 mm 11.0°
2
86%
17:00
11°
1015.5 hPa 3.3 mm 11.0°
2
86%
20:00
11°
1016.2 hPa 3.7 mm 10.4°
2
86%
23:00
11°
1017.0 hPa 3.2 mm 10.3°
2
65%
 01:44     00:11    Daglengte: 1:33 Morgen
02:00
10°
1017.8 hPa   9.1°
2
23%
05:00
11°
1017.9 hPa   9.8°
1
23%
08:00
13°
1018.1 hPa   10.6°
2
57%
11:00
13°
1018.5 hPa   11.0°
1
66%
14:00
15°
1018.4 hPa   11.4°
2
69%
17:00
15°
1018.2 hPa   12.3°
2
54%
20:00
13°
1018.1 hPa   11.5°
2
17%
23:00
13°
1018.5 hPa   11.5°
1
31%
 01:55     23:57    Daglengte: 22:02 Dinsdag 27 Jul
02:00
11°
1018.2 hPa   10.2°
1
30%
05:00
12°
1018.0 hPa   9.1°
1
11%
08:00
15°
1017.3 hPa   10.5°
1
15%
11:00
19°
1016.5 hPa   12.1°
2
0%
14:00
21°
1015.9 hPa   12.8°
3
0%
17:00
20°
1015.3 hPa   12.9°
3
0%
20:00
17°
1014.9 hPa   12.6°
3
4%
23:00
14°
1015.0 hPa   11.6°
3
33%
 02:04     23:46    Daglengte: 21:42 Woensdag 28 Jul
02:00
12°
1014.1 hPa   10.6°
3
13%
05:00
12°
1012.5 hPa 20.1 mm 10.8°
3
0%
08:00
14°
1011.6 hPa 20.1 mm 11.2°
3
0%
11:00
16°
1011.0 hPa 20.1 mm 11.5°
3
0%
14:00
17°
1010.5 hPa 20.1 mm 11.3°
3
0%
17:00
15°
1009.9 hPa 20.1 mm 10.5°
3
0%
20:00
12°
1009.3 hPa 20.1 mm 8.4°
3
0%
23:00
Voelt als: 6.3°
1009.4 hPa 20.1 mm 6.3°
3
0%
 02:13     23:36    Daglengte: 21:23 Donderdag 29 Jul
02:00
Voelt als: 5.4°
1008.5 hPa 20.1 mm 5.3°
3
0%
05:00
Voelt als: 6.3°
1007.7 hPa 20.1 mm 4.5°
3
1%
08:00
Voelt als: 6.1°
1006.7 hPa 20.1 mm 4.3°
3
1%
11:00
Voelt als: 7.6°
1005.6 hPa 20.1 mm 4.0°
3
1%
14:00
10°
Voelt als: 8.3°
1004.5 hPa 20.1 mm 4.5°
3
1%
17:00
Voelt als: 6.7°
1003.6 hPa 20.1 mm 6.1°
5
1%
20:00
Voelt als: 5.0°
1002.6 hPa 20.4 mm 5.8°
4
1%
23:00
Voelt als: 4.6°
1002.1 hPa 20.6 mm 4.4°
3
1%
 02:21     23:28    Daglengte: 21:07 Vrijdag 30 Jul
02:00
Voelt als: 3.8°
1001.8 hPa 20.7 mm 3.4°
3
1%
05:00
Voelt als: 3.5°
1001.1 hPa 20.9 mm 3.3°
3
1%
08:00
Voelt als: 4.9°
1000.1 hPa 21.3 mm 4.6°
3
1%
11:00
Voelt als: 6.6°
999.4 hPa 22.0 mm 3.7°
3
1%
14:00
10°
Voelt als: 8.3°
999.2 hPa 22.3 mm 4.6°
3
1%
17:00
10°
Voelt als: 8.3°
998.9 hPa 22.5 mm 5.4°
3
1%
20:00
Voelt als: 7.5°
998.9 hPa 22.6 mm 5.1°
3
1%
23:00
Voelt als: 6.8°
999.3 hPa 22.7 mm 5.9°
2
1%
 02:28     23:19    Daglengte: 20:51 Zaterdag 31 Jul
02:00
Voelt als: 6.9°
999.3 hPa 22.7 mm 6.1°
2
1%
05:00
Voelt als: 7.1°
999.3 hPa 22.8 mm 6.2°
2
1%
08:00
Voelt als: 7.8°
999.3 hPa 22.9 mm 5.5°
2
1%
11:00
10°
Voelt als: 9.2°
999.6 hPa 22.9 mm 5.4°
2
1%
14:00
11°
999.5 hPa 22.9 mm 5.7°
2
1%
17:00
12°
999.9 hPa 22.9 mm 5.5°
2
1%
20:00
11°
1000.4 hPa 22.9 mm 6.1°
2
1%
23:00
Voelt als: 6.0°
1000.9 hPa 22.9 mm 4.9°
2
1%
 02:35     23:12    Daglengte: 20:37 Zondag 01 Aug
02:00
Voelt als: 6.4°
1001.4 hPa 22.9 mm 3.9°
1
1%
05:00
Voelt als: 8.1°
1001.6 hPa   4.9°
1
0%
08:00
10°
1002.0 hPa 45.9 mm 6.5°
1
0%
14:00
12°
1002.8 hPa 46.3 mm 8.2°
2
1%
20:00
11°
1003.8 hPa 47.3 mm 6.8°
1
1%
 02:42     23:05    Daglengte: 20:23 Maandag 02 Aug
02:00
10°
1004.3 hPa 47.5 mm 7.0°
1
1%
08:00
10°
1004.7 hPa 48.6 mm 6.9°
1
1%
14:00
11°
1006.3 hPa 53.9 mm 8.6°
1
1%
20:00
11°
1007.7 hPa 56.1 mm 8.5°
3
1%
 02:48     22:58    Daglengte: 20:10 Dinsdag 03 Aug
02:00
1009.9 hPa 57.8 mm 6.0°
1
1%
14:00
12°
1009.2 hPa 87.2 mm 5.1°
2
1%
20:00
10°
1009.8 hPa 60.4 mm 6.2°
2
1%
 02:54     22:51    Daglengte: 19:57 Woensdag 04 Aug
02:00
1008.8 hPa 0.2 mm 6.9°
1
65%
08:00
12°
1009.0 hPa 0.3 mm 8.2°
1
73%
14:00
14°
1009.4 hPa 0.2 mm 8.7°
0
66%
20:00
13°
1010.0 hPa 0.2 mm 9.2°
1
66%
 03:00     22:44    Daglengte: 19:44 Donderdag 05 Aug
02:00
10°
Voelt als: 9.7°
1010.6 hPa 0.2 mm 7.2°
1
59%
08:00
13°
1010.6 hPa 0.2 mm 8.7°
1
57%
14:00
16°
1010.7 hPa 0.4 mm 9.5°
1
55%
20:00
14°
1011.0 hPa 0.4 mm 10.2°
2
55%
 03:06     22:38    Daglengte: 19:32 Vrijdag 06 Aug
02:00
10°
1011.5 hPa 0.3 mm 8.0°
1
49%
08:00
14°
1011.2 hPa 0.1 mm 9.8°
1
47%
14:00
16°
1010.9 hPa 0.1 mm 10.6°
1
55%
20:00
15°
1010.6 hPa 0.3 mm 10.8°
1
57%
 03:12     22:32    Daglengte: 19:20 Zaterdag 07 Aug
02:00
11°
1010.9 hPa 0.6 mm 8.4°
1
63%
08:00
13°
1010.7 hPa 0.7 mm 9.9°
1
64%
14:00
15°
1010.8 hPa 0.5 mm 10.6°
1
66%
20:00
14°
1011.0 hPa 0.5 mm 10.8°
2
73%
 03:17     22:26    Daglengte: 19:09 Zondag 08 Aug
02:00
11°
1011.2 hPa 0.2 mm 8.6°
2
61%
08:00
14°
1010.8 hPa 0.3 mm 9.9°
1
59%
14:00
16°
1011.0 hPa 0.7 mm 10.8°
1
56%
20:00
14°
1011.3 hPa 0.4 mm 10.8°
1
61%
 03:23     22:20    Daglengte: 18:57 Maandag 09 Aug
02:00
11°
1011.3 hPa 0.3 mm 9.1°
2
63%
08:00
14°
1010.5 hPa 0.4 mm 10.7°
2
64%
  CAPE Lifted Index Hail Supercell Tornado SRH 3km CL BTM PRES CL TOP PRES Swiss DWD icon SMHI TS
 01:31     00:34    Daglengte: 0:57 Vandaag
06:00 1 J/kg 3.9 K 0 % 0 % 0 % 0 m²/s² 0 0 4.11 61
07:00 2 J/kg 3.6 K 0 % 0 % 0 % 0 m²/s² 0 0 3.78 61
08:00 2 J/kg 3.4 K 0 % 0 % 0 % 0 m²/s² 0 0 3.61 61
09:00 3 J/kg 3.2 K 0 % 0 % 0 % 0 m²/s² 0 0 3.44 61
10:00 3 J/kg 2.9 K 0 % 0 % 0 % 0 m²/s² 0 0 3.62 61
11:00 3 J/kg 2.5 K 0 % 0 % 0 % 0 m²/s² 0 0 3.46 61
12:00 4 J/kg 2.3 K 0 % 0 % 0 % 0 m²/s² 0 0 3.35 61
13:00 3 J/kg 2.2 K 0 % 0 % 0 % 0 m²/s² 0 0 3.16 3
14:00 3 J/kg 2.4 K 0 % 0 % 0 % 0 m²/s² 0 0 3 61
15:00 3 J/kg 2.0 K 0 % 0 % 0 % 0 m²/s² 0 0 2.42 61
16:00 3 J/kg 1.8 K 0 % 0 % 0 % 0 m²/s² 0 0 2.1 3
17:00 2 J/kg 1.9 K 0 % 0 % 0 % 0 m²/s² 0 0 2.11 61
18:00 3 J/kg 1.7 K 0 % 0 % 0 % 0 m²/s² 0 0 2.09 61
19:00 2 J/kg 1.6 K 0 % 0 % 0 % 0 m²/s² 0 0 2.2 61
20:00 2 J/kg 1.8 K 0 % 0 % 0 % 0 m²/s² 0 0 2.28 61
21:00 1 J/kg 1.8 K 0 % 0 % 0 % 0 m²/s² 0 0 2.43 61
22:00 1 J/kg 1.9 K 0 % 0 % 0 % 0 m²/s² 0 0 2.86 3
23:00 1 J/kg 1.9 K 0 % 0 % 0 % 0 m²/s² 0 0 3.22 3
 01:44     00:11    Daglengte: 1:33 Morgen
00:00 1 J/kg 2.3 K 0 % 0 % 0 % 0 m²/s² 0 0 3.92 2
01:00 1 J/kg 2.4 K 0 % 0 % 0 % 0 m²/s² 0 0 3.72 2
02:00 2 J/kg 2.2 K 0 % 0 % 0 % 0 m²/s² 0 0 3.43 45
03:00 3 J/kg 2.8 K 0 % 0 % 0 % 0 m²/s² 0 0 3.91 0
04:00 3 J/kg 3.4 K 0 % 0 % 0 % 0 m²/s² 0 0 4.51 0
05:00 2 J/kg 3.6 K 0 % 0 % 0 % 0 m²/s² 0 0 4.83 1
06:00 2 J/kg 3.7 K 0 % 0 % 0 % 0 m²/s² 0 0 5.02 1
07:00 2 J/kg 3.7 K 0 % 0 % 0 % 0 m²/s² 0 0 4.93 1
08:00 2 J/kg 3.8 K 0 % 0 % 0 % 0 m²/s² 0 0 5.12 3
09:00 0 J/kg 3.9 K 0 % 0 % 0 % 0 m²/s² 0 0 5.34 2
10:00 0 J/kg 4.0 K 0 % 0 % 0 % 0 m²/s² 0 0 5.56 3
11:00 0 J/kg 3.3 K 0 % 0 % 0 % 0 m²/s² 0 0 4.8 3
12:00 0 J/kg 2.4 K 0 % 0 % 0 % 0 m²/s² 0 0 3.75 3
13:00 0 J/kg 1.8 K 0 % 0 % 0 % 0 m²/s² 0 0 3.03 3
14:00 0 J/kg 1.2 K 0 % 0 % 0 % 0 m²/s² 0 0 2.43 3
15:00 0 J/kg 0.9 K 0 % 0 % 0 % 0 m²/s² 0 0 2.19 3
16:00 2 J/kg 1.0 K 0 % 0 % 0 % 0 m²/s² 0 0 2.35 3
17:00 1 J/kg 0.8 K 0 % 0 % 0 % 0 m²/s² 0 0 2.3 2
18:00 1 J/kg 0.7 K 0 % 0 % 0 % 0 m²/s² 0 0 2.62 1
19:00 0 J/kg 0.8 K 0 % 0 % 0 % 0 m²/s² 0 0 2.99 0
20:00 0 J/kg 1.3 K 0 % 0 % 0 % 0 m²/s² 0 0 3.91 0
21:00 0 J/kg 1.2 K 0 % 0 % 0 % 0 m²/s² 0 0 4.32 0
22:00 0 J/kg 1.4 K 0 % 0 % 0 % 0 m²/s² 0 0 4.61 0
23:00 0 J/kg 1.4 K 0 % 0 % 0 % 0 m²/s² 0 0 4.1 0
 01:55     23:57    Daglengte: 22:02 Dinsdag 27 Jul
00:00 0 J/kg 1.6 K 0 % 0 % 0 % 0 m²/s² 0 0 4.09 0
01:00 0 J/kg 2.0 K 0 % 0 % 0 % 0 m²/s² 0 0 4.28 0
02:00 0 J/kg 2.0 K 0 % 0 % 0 % 0 m²/s² 0 0 4.07 0
03:00 0 J/kg 2.4 K 0 % 0 % 0 % 0 m²/s² 0 0 4.41 0
04:00 0 J/kg 2.7 K 0 % 0 % 0 % 0 m²/s² 0 0 4.65 0
05:00 0 J/kg 3.0 K 0 % 0 % 0 % 0 m²/s² 0 0 5.07 0
06:00 0 J/kg 3.3 K 0 % 0 % 0 % 0 m²/s² 0 0 5.52 0
07:00 0 J/kg 3.5 K 0 % 0 % 0 % 0 m²/s² 0 0 5.99 0
08:00 0 J/kg 3.9 K 0 % 0 % 0 % 0 m²/s² 0 0 6.69 0
09:00 0 J/kg 3.5 K 0 % 0 % 0 % 0 m²/s² 0 0 6.62 0
10:00 0 J/kg 3.1 K 0 % 0 % 0 % 0 m²/s² 0 0 6.49 0
11:00 0 J/kg 2.9 K 0 % 0 % 0 % 0 m²/s² 0 0 6.65 0
12:00 0 J/kg 2.8 K 0 % 0 % 0 % 0 m²/s² 0 0 6.97 0
13:00 0 J/kg 3.0 K 0 % 0 % 0 % 0 m²/s² 0 0 7.38 0
14:00 0 J/kg 3.5 K 0 % 0 % 0 % 0 m²/s² 0 0 8.12 0
15:00 0 J/kg 3.9 K 0 % 0 % 0 % 0 m²/s² 0 0 8.64 0
16:00 0 J/kg 4.3 K 0 % 0 % 0 % 0 m²/s² 0 0 9.04 0
17:00 0 J/kg 4.2 K 0 % 0 % 0 % 0 m²/s² 0 0 8.94 0
18:00 0 J/kg 4.1 K 0 % 0 % 0 % 0 m²/s² 0 0 8.84 0
19:00 0 J/kg 4.0 K 0 % 0 % 0 % 0 m²/s² 0 0 8.65 0
20:00 0 J/kg 4.5 K 0 % 0 % 0 % 0 m²/s² 0 0 9 0
21:00 0 J/kg 5.1 K 0 % 0 % 0 % 0 m²/s² 0 0 9.63 0
22:00 0 J/kg 6.3 K 0 % 0 % 0 % 0 m²/s² 0 0 10.71 0
23:00 0 J/kg 6.7 K 0 % 0 % 0 % 0 m²/s² 0 0 11.11 2
 02:04     23:46    Daglengte: 21:42 Woensdag 28 Jul
00:00 0 J/kg 6.4 K 0 % 0 % 0 % 0 m²/s² 0 0 10.81 1
01:00 0 J/kg 5.7 K 0 % 0 % 0 % 0 m²/s² 0 0 9.99 1
02:00 0 J/kg 4.5 K 0 % 0 % 0 % 0 m²/s² 0 0 8.67 0
Temp Baro Wind Neerslag
  EWN Forecast EWN WRFDA DWD ICON FMI HIRLAM MET Norway GFS
 01:31     00:34    Daglengte: 0:57 Vandaag
08:00 10.9° 1012.1 hPa 3.1 m/s 3.9 mm 11.0° 1011.7 hPa 3.4 m/s 6.9 mm 10.0° 1012.7 hPa 0.2 m/s 0.9 mm 10.9° 1012.1 hPa 3.5 m/s 0.0 mm 11.2° 1013.2 hPa 2.6 m/s
11:00 11.1° 1013.3 hPa 3.1 m/s 5.3 mm 11.0° 1012.8 hPa 4.4 m/s 11.7 mm 10.7° 1014.2 hPa 1.0 m/s 4.7 mm 11.2° 1012.8 hPa 5.0 m/s 0.0 mm 11.4° 1014.4 hPa 2.7 m/s
14:00 11.2° 1014.6 hPa 2.2 m/s 3.0 mm 11.3° 1013.6 hPa 4.1 m/s 14.2 mm 11.5° 1015.4 hPa 1.2 m/s 1.3 mm 11.2° 1013.8 hPa 4.5 m/s 0.0 mm 11.7° 1015.4 hPa 2.5 m/s
17:00 11.3° 1015.5 hPa 2.0 m/s 3.3 mm 11.1° 1014.4 hPa 3.4 m/s 15.9 mm 11.4° 1016.2 hPa 0.3 m/s 0.5 mm 11.4° 1014.4 hPa 3.6 m/s 0.0 mm 11.6° 1016.2 hPa 1.7 m/s
20:00 11.0° 1016.2 hPa 2.0 m/s 3.7 mm 10.8° 1015.2 hPa 3.1 m/s 17.4 mm 11.1° 1016.9 hPa 0.7 m/s 1.2 mm 11.5° 1014.5 hPa 2.5 m/s 0.0 mm 11.4° 1017.2 hPa 1.1 m/s
23:00 10.9° 1017.0 hPa 2.0 m/s 3.2 mm 10.6° 1015.8 hPa 1.0 m/s 18.5 mm 11.0° 1017.6 hPa 0.9 m/s 0.7 mm 11.8° 1015.2 hPa 3.2 m/s 0.0 mm 11.1° 1018.1 hPa 0.9 m/s
 01:44     00:11    Daglengte: 1:33 Morgen
02:00 10.1° 1017.8 hPa 1.7 m/s 0.0 mm 10.5° 1016.4 hPa 1.5 m/s 18.6 mm 9.9° 1018.3 hPa 0.9 m/s 0.0 mm 11.3° 1015.8 hPa 3.1 m/s 0.0 mm 11.0° 1018.6 hPa 0.6 m/s
05:00 10.6° 1017.9 hPa 1.3 m/s 0.0 mm 10.4° 1016.7 hPa 2.6 m/s 18.6 mm 10.5° 1018.4 hPa 0.8 m/s 0.0 mm 11.7° 1015.7 hPa 2.8 m/s 0.0 mm 11.4° 1018.9 hPa 0.6 m/s
08:00 12.7° 1018.1 hPa 1.7 m/s 0.0 mm 12.7° 1017.3 hPa 2.0 m/s 18.6 mm 13.5° 1018.6 hPa 0.2 m/s 0.0 mm 13.0° 1015.7 hPa 4.2 m/s 0.0 mm 13.4° 1019.1 hPa 0.8 m/s
11:00 13.0° 1018.5 hPa 1.3 m/s 0.0 mm 17.4° 1017.0 hPa 0.7 m/s 18.6 mm 16.3° 1018.8 hPa 0.4 m/s 0.0 mm 11.9° 1016.9 hPa 4.2 m/s 0.0 mm 15.5° 1018.9 hPa 0.7 m/s
14:00 14.5° 1018.4 hPa 1.8 m/s 0.0 mm 20.6° 1017.0 hPa 1.5 m/s 18.6 mm 18.4° 1018.6 hPa 0.6 m/s 0.0 mm 12.6° 1017.5 hPa 4.4 m/s 0.0 mm 16.5° 1018.8 hPa 1.6 m/s
17:00 14.8° 1018.2 hPa 2.0 m/s 0.0 mm 20.7° 1016.9 hPa 2.4 m/s 18.6 mm 18.9° 1018.4 hPa 1.7 m/s 0.0 mm 12.0° 1017.6 hPa 3.7 m/s 0.0 mm 16.8° 1018.8 hPa 1.4 m/s
20:00 13.1° 1018.1 hPa 1.9 m/s 0.0 mm 18.3° 1016.7 hPa 3.8 m/s 18.6 mm 17.5° 1018.1 hPa 1.4 m/s 0.0 mm 11.2° 1017.8 hPa 3.9 m/s 0.0 mm 16.3° 1018.4 hPa 2.0 m/s
23:00 13.3° 1018.5 hPa 0.9 m/s 0.0 mm 14.0° 1016.5 hPa 3.1 m/s 18.6 mm 13.9° 1018.6 hPa 0.6 m/s 0.0 mm 13.3° 1017.9 hPa 1.9 m/s
 01:55     23:57    Daglengte: 22:02 Dinsdag 27 Jul
02:00 11.4° 1018.2 hPa 1.1 m/s 0.0 mm 12.1° 1016.2 hPa 3.1 m/s 18.6 mm 11.7° 1018.3 hPa 0.8 m/s 0.0 mm 12.5° 1017.5 hPa 1.9 m/s
05:00 12.1° 1018.0 hPa 1.1 m/s 0.0 mm 14.7° 1015.3 hPa 3.1 m/s 18.6 mm 12.3° 1018.2 hPa 0.6 m/s 0.0 mm 14.9° 1016.6 hPa 1.6 m/s
08:00 15.4° 1017.3 hPa 1.4 m/s 0.0 mm 17.2° 1014.6 hPa 4.5 m/s 18.6 mm 16.2° 1017.5 hPa 0.2 m/s 0.0 mm 17.4° 1015.7 hPa 1.6 m/s
11:00 19.5° 1016.5 hPa 1.6 m/s 0.0 mm 20.0° 1014.5 hPa 4.3 m/s 18.6 mm 19.4° 1017.0 hPa 0.9 m/s 0.0 mm 19.4° 1015.1 hPa 1.8 m/s
14:00 20.7° 1015.9 hPa 2.6 m/s 0.0 mm 20.3° 1013.7 hPa 5.6 m/s 18.6 mm 20.8° 1016.5 hPa 1.9 m/s 0.0 mm 20.1° 1014.6 hPa 2.3 m/s
17:00 19.8° 1015.3 hPa 3.3 m/s 0.0 mm 18.0° 1013.2 hPa 6.8 m/s 18.6 mm 20.3° 1015.9 hPa 2.4 m/s 0.0 mm 18.9° 1014.2 hPa 2.6 m/s
20:00 17.2° 1014.9 hPa 3.4 m/s 0.0 mm 14.6° 1012.1 hPa 6.8 m/s 18.6 mm 17.8° 1015.6 hPa 2.6 m/s 0.0 mm 16.3° 1013.8 hPa 2.9 m/s
23:00 13.7° 1015.0 hPa 2.9 m/s 0.0 mm 11.3° 1011.9 hPa 6.3 m/s 18.6 mm 14.3° 1015.8 hPa 2.0 m/s 0.0 mm 12.2° 1013.9 hPa 2.8 m/s
 02:04     23:46    Daglengte: 21:42 Woensdag 28 Jul
02:00 11.7° 1014.1 hPa 2.6 m/s 0.0 mm 10.0° 1010.8 hPa 6.5 m/s 18.6 mm 12.1° 1014.9 hPa 1.6 m/s 0.0 mm 11.1° 1013.1 hPa 2.8 m/s
05:00 12.0° 1012.5 hPa 2.9 m/s 20.1 mm 12.0° 1012.5 hPa 2.9 m/s 20.1 mm
08:00 14.4° 1011.6 hPa 2.7 m/s 20.1 mm 14.4° 1011.6 hPa 2.7 m/s 20.1 mm
11:00 16.3° 1011.0 hPa 2.8 m/s 20.1 mm 16.3° 1011.0 hPa 2.8 m/s 20.1 mm
14:00 16.7° 1010.5 hPa 2.9 m/s 20.1 mm 16.7° 1010.5 hPa 2.9 m/s 20.1 mm
17:00 15.2° 1009.9 hPa 3.3 m/s 20.1 mm 15.2° 1009.9 hPa 3.3 m/s 20.1 mm
20:00 12.1° 1009.3 hPa 3.3 m/s 20.1 mm 12.1° 1009.3 hPa 3.3 m/s 20.1 mm
23:00 8.3° 1009.4 hPa 3.4 m/s 20.1 mm 8.3° 1009.4 hPa 3.4 m/s 20.1 mm
 02:13     23:36    Daglengte: 21:23 Donderdag 29 Jul
02:00 7.5° 1008.5 hPa 3.2 m/s 20.1 mm 7.5° 1008.5 hPa 3.2 m/s 20.1 mm
05:00 8.1° 1007.7 hPa 3.0 m/s 20.1 mm 8.1° 1007.7 hPa 3.0 m/s 20.1 mm
08:00 8.1° 1006.7 hPa 3.1 m/s 20.1 mm 8.1° 1006.7 hPa 3.1 m/s 20.1 mm
11:00 9.1° 1005.6 hPa 2.7 m/s 20.1 mm 9.1° 1005.6 hPa 2.7 m/s 20.1 mm
14:00 9.9° 1004.5 hPa 3.1 m/s 20.1 mm 9.9° 1004.5 hPa 3.1 m/s 20.1 mm
17:00 9.4° 1003.6 hPa 5.3 m/s 20.1 mm 9.4° 1003.6 hPa 5.3 m/s 20.1 mm
20:00 7.7° 1002.6 hPa 4.2 m/s 20.4 mm 7.7° 1002.6 hPa 4.2 m/s 20.4 mm
23:00 6.9° 1002.1 hPa 3.3 m/s 20.6 mm 6.9° 1002.1 hPa 3.3 m/s 20.6 mm
 02:21     23:28    Daglengte: 21:07 Vrijdag 30 Jul
02:00 6.3° 1001.8 hPa 3.4 m/s 20.7 mm 6.3° 1001.8 hPa 3.4 m/s 20.7 mm
05:00 6.1° 1001.1 hPa 3.5 m/s 20.9 mm 6.1° 1001.1 hPa 3.5 m/s 20.9 mm
08:00 6.9° 1000.1 hPa 2.8 m/s 21.3 mm 6.9° 1000.1 hPa 2.8 m/s 21.3 mm
11:00 8.2° 999.4 hPa 2.7 m/s 22.0 mm 8.2° 999.4 hPa 2.7 m/s 22.0 mm
14:00 9.8° 999.2 hPa 2.9 m/s 22.3 mm 9.8° 999.2 hPa 2.9 m/s 22.3 mm
17:00 9.9° 998.9 hPa 3.2 m/s 22.5 mm 9.9° 998.9 hPa 3.2 m/s 22.5 mm
20:00 9.1° 998.9 hPa 2.9 m/s 22.6 mm 9.1° 998.9 hPa 2.9 m/s 22.6 mm
23:00 8.1° 999.3 hPa 2.2 m/s 22.7 mm 8.1° 999.3 hPa 2.2 m/s 22.7 mm
 02:28     23:19    Daglengte: 20:51 Zaterdag 31 Jul
02:00 8.2° 999.3 hPa 2.1 m/s 22.7 mm 8.2° 999.3 hPa 2.1 m/s 22.7 mm
05:00 8.1° 999.3 hPa 1.9 m/s 22.8 mm 8.1° 999.3 hPa 1.9 m/s 22.8 mm
08:00 8.9° 999.3 hPa 2.1 m/s 22.9 mm 8.9° 999.3 hPa 2.1 m/s 22.9 mm
11:00 9.9° 999.6 hPa 1.9 m/s 22.9 mm 9.9° 999.6 hPa 1.9 m/s 22.9 mm
14:00 11.3° 999.5 hPa 1.6 m/s 22.9 mm 11.3° 999.5 hPa 1.6 m/s 22.9 mm
17:00 11.5° 999.9 hPa 2.0 m/s 22.9 mm 11.5° 999.9 hPa 2.0 m/s 22.9 mm
20:00 10.6° 1000.4 hPa 2.1 m/s 22.9 mm 10.6° 1000.4 hPa 2.1 m/s 22.9 mm
23:00 6.9° 1000.9 hPa 1.7 m/s 22.9 mm 6.9° 1000.9 hPa 1.7 m/s 22.9 mm
 02:35     23:12    Daglengte: 20:37 Zondag 01 Aug
02:00 6.4° 1001.4 hPa 0.5 m/s 22.9 mm 6.4° 1001.4 hPa 0.5 m/s 22.9 mm
05:00 8.1° 1001.6 hPa 1.1 m/s 22.9 mm 8.1° 1001.6 hPa 1.1 m/s 22.9 mm
08:00 10.0° 1002.0 hPa 0.9 m/s 22.9 mm 10.0° 1002.0 hPa 0.9 m/s 22.9 mm
14:00 11.9° 1002.8 hPa 1.8 m/s 23.3 mm 11.9° 1002.8 hPa 1.8 m/s 23.3 mm
20:00 11.0° 1003.8 hPa 1.5 m/s 23.7 mm 11.0° 1003.8 hPa 1.5 m/s 23.7 mm
 02:42     23:05    Daglengte: 20:23 Maandag 02 Aug
02:00 9.6° 1004.3 hPa 1.1 m/s 23.8 mm 9.6° 1004.3 hPa 1.1 m/s 23.8 mm
08:00 10.2° 1004.7 hPa 0.9 m/s 24.5 mm 10.2° 1004.7 hPa 0.9 m/s 24.5 mm
14:00 11.4° 1006.3 hPa 0.7 m/s 27.2 mm 11.4° 1006.3 hPa 0.7 m/s 27.2 mm
20:00 10.7° 1007.7 hPa 2.6 m/s 28.3 mm 10.7° 1007.7 hPa 2.6 m/s 28.3 mm
 02:48     22:58    Daglengte: 20:10 Dinsdag 03 Aug
02:00 7.9° 1009.9 hPa 0.9 m/s 29.0 mm 7.9° 1009.9 hPa 0.9 m/s 29.0 mm
14:00 11.8° 1009.2 hPa 1.6 m/s 29.1 mm 11.8° 1009.2 hPa 1.6 m/s 29.1 mm
20:00 10.4° 1009.8 hPa 2.0 m/s 30.5 mm 10.4° 1009.8 hPa 2.0 m/s 30.5 mm
 02:54     22:51    Daglengte: 19:57 Woensdag 04 Aug
02:00 9.5° 1008.8 hPa 1.1 m/s 0.2 mm
08:00 12.1° 1009.0 hPa 1.0 m/s 0.3 mm
14:00 14.5° 1009.4 hPa 0.3 m/s 0.2 mm
20:00 13.5° 1010.0 hPa 0.8 m/s 0.2 mm
 03:00     22:44    Daglengte: 19:44 Donderdag 05 Aug
02:00 9.7° 1010.6 hPa 0.9 m/s 0.2 mm
08:00 13.0° 1010.6 hPa 1.2 m/s 0.2 mm
14:00 15.5° 1010.7 hPa 0.8 m/s 0.4 mm
20:00 14.2° 1011.0 hPa 1.5 m/s 0.4 mm
 03:06     22:38    Daglengte: 19:32 Vrijdag 06 Aug
02:00 10.4° 1011.5 hPa 1.1 m/s 0.3 mm
08:00 13.5° 1011.2 hPa 1.3 m/s 0.1 mm
14:00 16.2° 1010.9 hPa 1.2 m/s 0.1 mm
20:00 14.9° 1010.6 hPa 1.4 m/s 0.3 mm
 03:12     22:32    Daglengte: 19:20 Zaterdag 07 Aug
02:00 11.2° 1010.9 hPa 1.2 m/s 0.6 mm
08:00 13.2° 1010.7 hPa 0.9 m/s 0.7 mm
14:00 15.3° 1010.8 hPa 0.8 m/s 0.5 mm
20:00 14.1° 1011.0 hPa 1.5 m/s 0.5 mm
 03:17     22:26    Daglengte: 19:09 Zondag 08 Aug
02:00 11.0° 1011.2 hPa 1.5 m/s 0.2 mm
08:00 13.6° 1010.8 hPa 1.2 m/s 0.3 mm
14:00 15.8° 1011.0 hPa 0.7 m/s 0.7 mm
20:00 14.4° 1011.3 hPa 1.3 m/s 0.4 mm
 03:23     22:20    Daglengte: 18:57 Maandag 09 Aug
02:00 11.4° 1011.3 hPa 1.7 m/s 0.3 mm
08:00 14.1° 1010.5 hPa 1.9 m/s 0.4 mm
FMI Hirlam - 7.5 km EWN WRFDA - 12 km DWD ICON - 7 km GFS - 25 km Basiskaart